EW6866 Weather Reports


time (UTC)temp
F
wind
direction
speed
knots
gust
knots
rain 1hr
in
rain 24hr
in
rain mn
in
humidity
%
barometer
mb
20260503200005 67 130 0.0 3.5 0.00 0.03 0.00 46 1015.3
20260503194504 66 117 0.9 1.7 0.00 0.03 0.00 45 1015.5
20260503193004 65 154 0.9 4.3 0.00 0.04 0.00 45 1015.5
20260503191526 65 152 0.9 6.1 0.00 0.04 0.00 46 1015.9
20260503190025 65 149 0.9 5.2 0.00 0.04 0.00 44 1016.1
20260503184525 65 157 0.9 4.3 0.00 0.04 0.00 45 1016.1
20260503183025 65 177 0.9 7.0 0.00 0.04 0.00 45 1016.3
20260503181505 65 135 0.9 8.7 0.00 0.04 0.00 50 1016.4
20260503180005 63 134 1.7 7.0 0.00 0.04 0.00 47 1016.4
20260503174504 64 130 0.9 5.2 0.00 0.04 0.00 51 1016.4
20260503173004 62 133 0.9 4.3 0.00 0.05 0.00 49 1016.4
20260503171525 63 117 0.9 7.0 0.00 0.06 0.00 48 1016.6
20260503081504 44 0 0.0 0.0 0.00 0.19 0.00 96 1012.7
20260503071505 45 0 0.0 0.0 0.00 0.19 0.00 95 1012.1
20260503054505 48 0 0.0 0.0 0.00 0.19 0.00 95 1011.7
20260503053005 49 0 0.0 0.0 0.00 0.19 0.00 95 1011.5
20260503051527 49 0 0.0 0.0 0.00 0.19 0.00 95 1011.6
20260503050005 49 0 0.0 0.0 0.00 0.19 0.00 95 1011.8
20260503044506 49 0 0.0 0.0 0.00 0.19 0.00 95 1011.6
20260503043026 50 0 0.0 0.0 0.00 0.19 0.00 95 1011.6
20260503041505 50 0 0.0 0.0 0.00 0.19 0.00 95 1011.6
20260503040006 50 0 0.0 0.0 0.00 0.19 0.00 95 1011.6
20260503034526 50 0 0.0 0.0 0.00 0.19 0.19 95 1011.8
20260503033005 51 0 0.0 0.0 0.00 0.19 0.19 95 1011.5
20260503031505 51 0 0.0 0.0 0.00 0.19 0.19 95 1011.5
20260503030026 51 0 0.0 0.0 0.00 0.19 0.19 95 1011.5
20260503024505 51 0 0.0 0.0 0.01 0.19 0.19 95 1011.6
20260503023005 51 0 0.0 0.0 0.01 0.20 0.19 95 1011.4
20260503021506 51 0 0.0 0.0 0.01 0.20 0.19 95 1011.5
20260503020005 51 0 0.0 0.0 0.01 0.20 0.19 95 1011.6
20260503014505 51 0 0.0 0.0 0.00 0.19 0.18 95 1011.6
20260503013027 52 0 0.0 0.0 0.00 0.19 0.18 95 1011.6
20260503011505 52 0 0.0 0.0 0.00 0.19 0.18 95 1011.0
20260503010005 52 0 0.0 0.0 0.00 0.19 0.18 95 1011.0
20260503004504 52 0 0.0 0.0 0.00 0.19 0.18 95 1010.8
20260503003005 52 0 0.0 0.0 0.00 0.19 0.18 95 1010.6
20260503001526 52 0 0.0 0.0 0.00 0.19 0.18 94 1010.7
20260503000005 52 0 0.0 0.0 0.00 0.19 0.18 94 1010.7
20260502234526 52 0 0.0 0.0 0.00 0.19 0.18 94 1010.3
20260502233005 52 0 0.0 0.0 0.00 0.19 0.18 93 1010.1
20260502231505 52 0 0.0 0.0 0.00 0.19 0.18 93 1009.8
20260502230005 52 0 0.0 0.0 0.00 0.19 0.18 93 1009.9
20260502224505 52 0 0.0 0.0 0.00 0.19 0.18 93 1010.0
20260502223025 52 0 0.0 0.0 0.00 0.19 0.18 92 1010.1
20260502221505 52 0 0.0 0.0 0.00 0.19 0.18 92 1010.0
20260502220026 53 0 0.0 0.0 0.00 0.19 0.18 91 1010.0
20260502214504 53 0 0.0 0.0 0.01 0.19 0.18 91 1010.1
20260502213004 54 0 0.0 0.0 0.01 0.19 0.18 91 1010.1
20260502211526 54 107 0.0 0.9 0.01 0.19 0.18 92 1010.1
20260502210005 54 106 0.0 0.9 0.02 0.19 0.18 91 1010.1
20260502204504 54 0 0.0 0.0 0.01 0.18 0.17 91 1009.9
20260502203004 53 98 0.0 0.9 0.02 0.18 0.17 90 1009.9
20260502201504 53 129 0.0 1.7 0.02 0.18 0.17 89 1010.0